Location: Endfield
(51.6667°N, 0.0667°W)
Time: 12:53:31
(UTC+00:00)

AO-27 - Pass Details

Date: 17 September 2024
Orbit: 783 x 796 km, 98.8° (Epoch: 08 October)

Event Time Altitude Azimuth Distance (km) Brightness Sun altitude
Exits shadow 19:14:17 14° 111° (ESE) 2,086 9.2 -10.7°
Maximum altitude 19:17:48 28° 59° (ENE) 1,450 8.7 -11.3°
Drops below altitude 10° 19:22:12 10° 2° (N) 2,369 10.4 -11.9°
Sets 19:24:48 0° 351° (N) 3,300 11.3 -12.3°
